Time,TemperatureF,DewpointF,PressureIn,WindDirection,WindDirectionDegrees,WindSpeedMPH,WindSpeedGustMPH,Humidity,HourlyPrecipIn,Conditions,Clouds,dailyrainin,SoftwareType,DateUTC
2013-07-05 00:01:00,61.0,59.0,30.05,SE,145,0.0,0.0,92,0.00,,,0.00,,2013-07-05 05:01:00,
2013-07-05 00:12:00,61.0,59.0,30.05,SE,145,0.0,0.0,92,0.00,,,0.00,,2013-07-05 05:12:00,
2013-07-05 00:22:00,60.0,58.0,30.05,SE,145,0.0,0.0,92,0.00,,,0.00,,2013-07-05 05:22:00,
2013-07-05 00:33:00,60.0,58.0,30.04,SE,145,0.0,0.0,93,0.00,,,0.00,,2013-07-05 05:33:00,
2013-07-05 00:43:00,60.0,58.0,30.04,SE,145,0.0,0.0,93,0.00,,,0.00,,2013-07-05 05:43:00,
2013-07-05 00:52:00,60.0,58.0,30.04,SE,145,0.0,0.0,93,0.00,,,0.00,,2013-07-05 05:52:00,
2013-07-05 01:02:00,60.0,58.0,30.04,SE,145,0.0,0.0,93,0.00,,,0.00,,2013-07-05 06:02:00,
2013-07-05 01:13:00,60.0,58.0,30.04,SE,145,0.0,0.0,94,0.00,,,0.00,,2013-07-05 06:13:00,
2013-07-05 01:23:00,60.0,58.0,30.04,SE,145,0.0,0.0,94,0.00,,,0.00,,2013-07-05 06:23:00,
2013-07-05 01:34:00,60.0,59.0,30.04,SE,146,0.0,1.0,95,0.00,,,0.00,,2013-07-05 06:34:00,
2013-07-05 01:44:00,61.0,60.0,30.04,SSE,155,0.0,1.0,95,0.00,,,0.00,,2013-07-05 06:44:00,
2013-07-05 01:53:00,61.0,60.0,30.04,SSE,155,0.0,1.0,95,0.00,,,0.00,,2013-07-05 06:53:00,
2013-07-05 02:02:00,61.0,60.0,30.04,SSE,155,0.0,1.0,95,0.00,,,0.00,,2013-07-05 07:02:00,
2013-07-05 02:12:00,61.0,60.0,30.03,SSE,156,0.0,1.0,95,0.00,,,0.00,,2013-07-05 07:12:00,
2013-07-05 02:23:00,61.0,60.0,30.03,SSE,156,0.0,1.0,95,0.00,,,0.00,,2013-07-05 07:23:00,
2013-07-05 02:34:00,62.0,61.0,30.03,SSE,157,0.0,2.0,95,0.00,,,0.00,,2013-07-05 07:34:00,
2013-07-05 02:53:00,62.0,61.0,30.03,SE,146,0.0,1.0,95,0.00,,,0.00,,2013-07-05 07:53:00,
2013-07-05 03:02:00,62.0,61.0,30.03,SSE,150,0.0,2.0,96,0.00,,,0.00,,2013-07-05 08:02:00,
2013-07-05 03:12:00,62.0,61.0,30.03,SSE,150,0.0,1.0,96,0.00,,,0.00,,2013-07-05 08:12:00,
2013-07-05 03:23:00,62.0,61.0,30.03,SSE,150,0.0,1.0,96,0.00,,,0.00,,2013-07-05 08:23:00,
2013-07-05 03:33:00,62.0,61.0,30.02,SSE,150,0.0,1.0,95,0.00,,,0.00,,2013-07-05 08:33:00,
2013-07-05 03:43:00,62.0,61.0,30.02,SSE,160,0.0,1.0,96,0.00,,,0.00,,2013-07-05 08:43:00,
2013-07-05 04:08:00,62.0,61.0,30.03,SSW,195,0.0,4.0,96,0.00,,,0.00,,2013-07-05 09:08:00,
2013-07-05 04:16:00,62.0,61.0,30.03,SSW,195,0.0,1.0,96,0.00,,,0.00,,2013-07-05 09:16:00,
2013-07-05 04:25:00,62.0,61.0,30.03,SSW,195,0.0,1.0,96,0.00,,,0.00,,2013-07-05 09:25:00,
2013-07-05 04:37:00,61.0,60.0,30.04,SSW,195,0.0,1.0,96,0.00,,,0.00,,2013-07-05 09:37:00,
2013-07-05 04:46:00,61.0,60.0,30.04,SSW,195,0.0,0.0,96,0.00,,,0.00,,2013-07-05 09:46:00,
2013-07-05 04:54:00,61.0,60.0,30.04,SSW,195,0.0,0.0,96,0.00,,,0.00,,2013-07-05 09:54:00,
2013-07-05 05:06:00,61.0,60.0,30.04,South,175,0.0,2.0,96,0.00,,,0.00,,2013-07-05 10:06:00,
2013-07-05 05:17:00,62.0,61.0,30.05,South,175,0.0,1.0,97,0.00,,,0.00,,2013-07-05 10:17:00,
2013-07-05 05:26:00,62.0,61.0,30.05,South,175,0.0,1.0,97,0.00,,,0.00,,2013-07-05 10:26:00,
2013-07-05 05:47:00,62.0,61.0,30.05,South,175,0.0,1.0,97,0.00,,,0.00,,2013-07-05 10:47:00,
2013-07-05 05:55:00,62.0,61.0,30.05,South,175,0.0,1.0,97,0.00,,,0.00,,2013-07-05 10:55:00,
2013-07-05 06:08:00,62.0,61.0,30.05,South,175,0.0,0.0,97,0.00,,,0.00,,2013-07-05 11:08:00,
2013-07-05 06:17:00,62.0,61.0,30.05,South,175,0.0,1.0,97,0.00,,,0.00,,2013-07-05 11:17:00,
2013-07-05 06:24:00,62.0,61.0,30.05,South,175,0.0,1.0,97,0.00,,,0.00,,2013-07-05 11:24:00,
2013-07-05 06:37:00,63.0,62.0,30.05,South,177,0.0,2.0,97,0.00,,,0.00,,2013-07-05 11:37:00,
2013-07-05 06:46:00,63.0,62.0,30.06,South,177,0.0,1.0,97,0.00,,,0.00,,2013-07-05 11:46:00,
2013-07-05 06:56:00,63.0,62.0,30.06,South,177,0.0,1.0,97,0.00,,,0.00,,2013-07-05 11:56:00,
2013-07-05 07:24:00,64.0,63.0,30.05,South,177,0.0,2.0,97,0.00,,,0.00,,2013-07-05 12:24:00,
2013-07-05 07:37:00,64.0,63.0,30.05,South,181,0.0,2.0,98,0.00,,,0.00,,2013-07-05 12:37:00,
2013-07-05 07:47:00,65.0,64.0,30.06,South,187,0.0,2.0,98,0.01,,,0.01,,2013-07-05 12:47:00,
2013-07-05 08:05:00,66.0,65.0,30.07,SW,219,0.0,3.0,97,0.01,,,0.01,,2013-07-05 13:05:00,
2013-07-05 08:13:00,67.0,66.0,30.07,South,180,1.0,3.0,98,0.01,,,0.01,,2013-07-05 13:13:00,
2013-07-05 08:25:00,67.0,66.0,30.07,South,180,1.0,3.0,98,0.01,,,0.01,,2013-07-05 13:25:00,
2013-07-05 08:48:00,68.0,67.0,30.08,SSE,166,1.0,4.0,97,0.00,,,0.01,,2013-07-05 13:48:00,
2013-07-05 08:55:00,68.0,67.0,30.08,SSE,166,1.0,4.0,97,0.00,,,0.01,,2013-07-05 13:55:00,
2013-07-05 09:07:00,68.0,67.0,30.07,SSW,210,2.0,6.0,96,0.00,,,0.01,,2013-07-05 14:07:00,
2013-07-05 09:15:00,69.0,68.0,30.08,SSW,212,2.0,5.0,95,0.00,,,0.01,,2013-07-05 14:15:00,
2013-07-05 09:37:00,70.0,68.0,30.08,SSW,209,1.0,6.0,92,0.00,,,0.01,,2013-07-05 14:37:00,
2013-07-05 09:46:00,71.0,68.0,30.07,SW,223,0.0,4.0,89,0.00,,,0.01,,2013-07-05 14:46:00,
2013-07-05 10:16:00,73.0,68.0,30.07,SW,219,1.0,6.0,85,0.00,,,0.01,,2013-07-05 15:16:00,
2013-07-05 10:24:00,73.0,68.0,30.07,SW,219,1.0,6.0,85,0.00,,,0.01,,2013-07-05 15:24:00,
2013-07-05 10:34:00,74.0,70.0,30.07,SE,146,1.0,5.0,87,0.00,,,0.01,,2013-07-05 15:34:00,
2013-07-05 10:43:00,75.0,69.0,30.07,East,94,2.0,6.0,83,0.00,,,0.01,,2013-07-05 15:43:00,
2013-07-05 11:02:00,75.0,69.0,30.07,SSE,167,3.0,6.0,82,0.00,,,0.01,,2013-07-05 16:02:00,
2013-07-05 11:33:00,75.0,69.0,30.07,ESE,113,2.0,4.0,81,0.00,,,0.01,,2013-07-05 16:33:00,
2013-07-05 11:44:00,76.0,69.0,30.07,SE,146,1.0,8.0,78,0.00,,,0.01,,2013-07-05 16:44:00,
2013-07-05 11:53:00,76.0,69.0,30.07,SE,146,1.0,8.0,78,0.00,,,0.01,,2013-07-05 16:53:00,
2013-07-05 12:02:00,76.0,69.0,30.07,SE,130,2.0,7.0,79,0.00,,,0.01,,2013-07-05 17:02:00,
2013-07-05 12:12:00,76.0,69.0,30.07,ESE,113,2.0,6.0,78,0.00,,,0.01,,2013-07-05 17:12:00,
2013-07-05 12:22:00,76.0,69.0,30.07,ESE,113,2.0,6.0,78,0.00,,,0.01,,2013-07-05 17:22:00,
2013-07-05 12:33:00,77.0,70.0,30.07,SSW,207,2.0,7.0,78,0.00,,,0.01,,2013-07-05 17:33:00,
2013-07-05 12:43:00,77.0,70.0,30.07,SE,143,4.0,8.0,80,0.00,,,0.01,,2013-07-05 17:43:00,
2013-07-05 12:53:00,77.0,70.0,30.07,SE,143,4.0,8.0,80,0.00,,,0.01,,2013-07-05 17:53:00,
2013-07-05 13:01:00,77.0,70.0,30.07,SE,125,2.0,11.0,79,0.00,,,0.01,,2013-07-05 18:01:00,
2013-07-05 13:11:00,77.0,70.0,30.07,South,180,2.0,8.0,78,0.00,,,0.01,,2013-07-05 18:11:00,
2013-07-05 13:22:00,77.0,70.0,30.07,South,180,2.0,8.0,78,0.00,,,0.01,,2013-07-05 18:22:00,
2013-07-05 13:33:00,78.0,70.0,30.07,SE,128,2.0,7.0,76,0.00,,,0.01,,2013-07-05 18:33:00,
2013-07-05 13:43:00,77.0,70.0,30.07,South,174,3.0,7.0,78,0.00,,,0.01,,2013-07-05 18:43:00,
2013-07-05 13:53:00,77.0,70.0,30.07,South,174,3.0,7.0,78,0.00,,,0.01,,2013-07-05 18:53:00,
2013-07-05 14:01:00,78.0,68.0,30.06,SE,144,1.0,9.0,71,0.00,,,0.01,,2013-07-05 19:01:00,
2013-07-05 14:12:00,78.0,68.0,30.06,South,171,3.0,8.0,72,0.00,,,0.01,,2013-07-05 19:12:00,
2013-07-05 14:22:00,78.0,68.0,30.06,South,171,3.0,8.0,72,0.00,,,0.01,,2013-07-05 19:22:00,
2013-07-05 14:34:00,78.0,67.0,30.05,SE,124,5.0,7.0,70,0.00,,,0.01,,2013-07-05 19:34:00,
2013-07-05 14:43:00,78.0,69.0,30.05,South,172,3.0,9.0,73,0.00,,,0.01,,2013-07-05 19:43:00,
2013-07-05 14:53:00,78.0,69.0,30.05,South,172,3.0,9.0,73,0.00,,,0.01,,2013-07-05 19:53:00,
2013-07-05 15:02:00,79.0,68.0,30.04,SE,140,2.0,8.0,68,0.00,,,0.01,,2013-07-05 20:02:00,
2013-07-05 15:11:00,79.0,67.0,30.04,East,94,3.0,9.0,67,0.00,,,0.01,,2013-07-05 20:11:00,
2013-07-05 15:22:00,79.0,67.0,30.04,East,94,3.0,9.0,67,0.00,,,0.01,,2013-07-05 20:22:00,
2013-07-05 15:33:00,79.0,67.0,30.03,SSE,150,2.0,7.0,67,0.00,,,0.01,,2013-07-05 20:33:00,
2013-07-05 15:43:00,79.0,67.0,30.03,South,188,3.0,7.0,67,0.00,,,0.01,,2013-07-05 20:43:00,
2013-07-05 15:53:00,79.0,67.0,30.03,South,188,3.0,7.0,67,0.00,,,0.01,,2013-07-05 20:53:00,
2013-07-05 16:01:00,79.0,65.0,30.03,SSE,148,4.0,7.0,63,0.00,,,0.01,,2013-07-05 21:01:00,
2013-07-05 16:11:00,80.0,66.0,30.03,SSW,200,4.0,9.0,63,0.00,,,0.01,,2013-07-05 21:11:00,
2013-07-05 16:22:00,80.0,66.0,30.03,SSW,200,4.0,9.0,63,0.00,,,0.01,,2013-07-05 21:22:00,
2013-07-05 16:34:00,80.0,66.0,30.03,SSE,162,4.0,9.0,63,0.00,,,0.01,,2013-07-05 21:34:00,
2013-07-05 16:42:00,80.0,66.0,30.02,SSE,150,2.0,7.0,63,0.00,,,0.01,,2013-07-05 21:42:00,
2013-07-05 16:53:00,80.0,66.0,30.02,SSE,150,2.0,7.0,63,0.00,,,0.01,,2013-07-05 21:53:00,
2013-07-05 17:02:00,80.0,67.0,30.02,South,191,4.0,11.0,64,0.00,,,0.01,,2013-07-05 22:02:00,
2013-07-05 17:11:00,80.0,67.0,30.02,SSE,152,3.0,9.0,64,0.00,,,0.01,,2013-07-05 22:11:00,
2013-07-05 17:22:00,80.0,67.0,30.02,SSE,152,3.0,9.0,64,0.00,,,0.01,,2013-07-05 22:22:00,
2013-07-05 17:34:00,80.0,65.0,30.02,South,174,4.0,8.0,61,0.00,,,0.01,,2013-07-05 22:34:00,
2013-07-05 17:43:00,80.0,66.0,30.01,SSE,162,4.0,9.0,63,0.00,,,0.01,,2013-07-05 22:43:00,
2013-07-05 17:53:00,80.0,66.0,30.01,SSE,162,4.0,9.0,63,0.00,,,0.01,,2013-07-05 22:53:00,
2013-07-05 18:02:00,79.0,67.0,30.01,SSE,154,3.0,7.0,66,0.00,,,0.01,,2013-07-05 23:02:00,
2013-07-05 18:11:00,79.0,66.0,30.02,SSE,166,3.0,8.0,64,0.00,,,0.01,,2013-07-05 23:11:00,
2013-07-05 18:23:00,79.0,66.0,30.02,SSE,166,3.0,8.0,64,0.00,,,0.01,,2013-07-05 23:23:00,
2013-07-05 18:32:00,78.0,65.0,30.01,South,178,3.0,7.0,65,0.00,,,0.01,,2013-07-05 23:32:00,
2013-07-05 18:43:00,78.0,66.0,30.01,SSE,148,2.0,7.0,66,0.00,,,0.01,,2013-07-05 23:43:00,
2013-07-05 18:53:00,78.0,66.0,30.01,SSE,148,2.0,7.0,66,0.00,,,0.01,,2013-07-05 23:53:00,
2013-07-05 19:01:00,78.0,65.0,30.01,SSE,167,4.0,9.0,65,0.00,,,0.01,,2013-07-06 00:01:00,
2013-07-05 19:11:00,78.0,66.0,30.00,SSE,163,2.0,6.0,67,0.00,,,0.01,,2013-07-06 00:11:00,
2013-07-05 19:22:00,78.0,66.0,30.00,SSE,163,2.0,6.0,67,0.00,,,0.01,,2013-07-06 00:22:00,
2013-07-05 19:33:00,77.0,66.0,30.00,South,173,3.0,6.0,69,0.00,,,0.01,,2013-07-06 00:33:00,
2013-07-05 19:42:00,76.0,66.0,30.01,SSW,200,1.0,5.0,72,0.00,,,0.01,,2013-07-06 00:42:00,
2013-07-05 19:53:00,76.0,66.0,30.01,SSW,200,1.0,5.0,72,0.00,,,0.01,,2013-07-06 00:53:00,
2013-07-05 20:02:00,75.0,67.0,30.01,SSE,160,0.0,2.0,76,0.00,,,0.01,,2013-07-06 01:02:00,
2013-07-05 20:12:00,74.0,67.0,30.01,SSE,148,0.0,2.0,79,0.00,,,0.01,,2013-07-06 01:12:00,
2013-07-05 20:22:00,74.0,67.0,30.01,SSE,148,0.0,2.0,79,0.00,,,0.01,,2013-07-06 01:22:00,
2013-07-05 20:33:00,72.0,66.0,30.01,SSE,148,0.0,0.0,82,0.00,,,0.01,,2013-07-06 01:33:00,
2013-07-05 20:43:00,71.0,66.0,30.02,SSE,148,0.0,0.0,84,0.00,,,0.01,,2013-07-06 01:43:00,
2013-07-05 20:53:00,71.0,66.0,30.02,SSE,148,0.0,0.0,84,0.00,,,0.01,,2013-07-06 01:53:00,
2013-07-05 21:02:00,70.0,66.0,30.02,SSE,148,0.0,1.0,86,0.00,,,0.01,,2013-07-06 02:02:00,
2013-07-05 21:12:00,69.0,65.0,30.02,SSE,148,0.0,1.0,88,0.00,,,0.01,,2013-07-06 02:12:00,
2013-07-05 21:22:00,69.0,65.0,30.02,SSE,148,0.0,1.0,88,0.00,,,0.01,,2013-07-06 02:22:00,
2013-07-05 21:34:00,69.0,66.0,30.02,South,177,0.0,2.0,89,0.00,,,0.01,,2013-07-06 02:34:00,
2013-07-05 21:43:00,70.0,66.0,30.03,SSW,202,1.0,3.0,87,0.00,,,0.01,,2013-07-06 02:43:00,
2013-07-05 21:53:00,70.0,66.0,30.03,SSW,202,1.0,3.0,87,0.00,,,0.01,,2013-07-06 02:53:00,
2013-07-05 22:02:00,69.0,65.0,30.03,SSW,205,0.0,1.0,86,0.00,,,0.01,,2013-07-06 03:02:00,
2013-07-05 22:12:00,69.0,65.0,30.03,SSW,205,0.0,2.0,86,0.00,,,0.01,,2013-07-06 03:12:00,
2013-07-05 22:22:00,69.0,65.0,30.03,SSW,205,0.0,2.0,86,0.00,,,0.01,,2013-07-06 03:22:00,
2013-07-05 22:34:00,69.0,65.0,30.03,SSW,205,0.0,1.0,87,0.00,,,0.01,,2013-07-06 03:34:00,
2013-07-05 22:43:00,69.0,65.0,30.03,SSW,205,0.0,0.0,87,0.00,,,0.01,,2013-07-06 03:43:00,
2013-07-05 22:52:00,69.0,65.0,30.03,SSW,205,0.0,0.0,87,0.00,,,0.01,,2013-07-06 03:52:00,
2013-07-05 23:02:00,69.0,65.0,30.03,SSW,205,0.0,1.0,88,0.00,,,0.01,,2013-07-06 04:02:00,
2013-07-05 23:12:00,68.0,64.0,30.04,SSW,205,0.0,0.0,88,0.00,,,0.01,,2013-07-06 04:12:00,
2013-07-05 23:22:00,68.0,64.0,30.04,SSW,205,0.0,0.0,88,0.00,,,0.01,,2013-07-06 04:22:00,
2013-07-05 23:33:00,67.0,64.0,30.04,SSW,205,0.0,0.0,90,0.00,,,0.01,,2013-07-06 04:33:00,
2013-07-05 23:43:00,67.0,64.0,30.04,SSW,205,0.0,0.0,91,0.00,,,0.01,,2013-07-06 04:43:00,
2013-07-05 23:53:00,67.0,64.0,30.04,SSW,205,0.0,0.0,91,0.00,,,0.01,,2013-07-06 04:53:00,